Location: Gilevgi
(36.8751°N, 30.0581°E)
Time: 23:58:24
(UTC+00:00)

Cosmos 1898 Rocket - Pass Details

Date: 11 December 2025
Orbit: 749 x 779 km, 74.0° (Epoch: 14 January)

Event Time Altitude Azimuth Distance (km) Brightness Sun altitude
Rises 16:39:32 0° 209° (SSW) 3,180 7.3 -22.5°
Reaches altitude 10° 16:41:56 10° 214° (SW) 2,260 6.5 -23.0°
Maximum altitude 16:46:56 53° 291° (WNW) 920 4.1 -23.9°
Enters shadow 16:50:11 21° 0° (N) 1,635 5.1 -24.6°
